| time (UTC) | temp F | wind direction | speed knots | gust knots | rain 1hr in | rain 24hr in | rain mn in | humidity % | barometer mb |
| 20260509034403 | 75 | 125 | 2.6 | 5.2 | 0.00 | 0.00 | 0.00 | 91 | 1010.4 |
| 20260509033324 | 74 | 144 | 1.7 | 3.5 | 0.00 | 0.00 | 0.00 | 91 | 1010.3 |
| 20260509032352 | 74 | 129 | 0.0 | 1.7 | 0.00 | 0.00 | 0.00 | 91 | 1010.2 |
| 20260509031339 | 74 | 28 | 0.0 | 1.7 | 0.00 | 0.00 | 0.00 | 91 | 1010.0 |
| 20260509030332 | 74 | 54 | 0.0 | 0.0 | 0.00 | 0.00 | 0.00 | 91 | 1010.1 |
| 20260509025340 | 74 | 54 | 0.0 | 0.0 | 0.00 | 0.00 | 0.00 | 91 | 1010.0 |
| 20260509024325 | 74 | 54 | 0.0 | 0.0 | 0.00 | 0.00 | 0.00 | 90 | 1009.9 |
| 20260509023333 | 74 | 54 | 0.0 | 0.0 | 0.00 | 0.00 | 0.00 | 90 | 1009.9 |
| 20260509022341 | 74 | 54 | 0.0 | 0.0 | 0.00 | 0.00 | 0.00 | 90 | 1010.0 |
| 20260509021330 | 74 | 102 | 0.0 | 0.0 | 0.00 | 0.00 | 0.00 | 90 | 1009.7 |
| 20260509020341 | 74 | 131 | 0.0 | 0.0 | 0.00 | 0.00 | 0.00 | 90 | 1009.6 |
| 20260509015352 | 74 | 131 | 0.0 | 0.0 | 0.00 | 0.00 | 0.00 | 90 | 1009.4 |
| 20260509014324 | 74 | 128 | 0.0 | 2.6 | 0.00 | 0.00 | 0.00 | 90 | 1009.2 |
| 20260509013335 | 74 | 82 | 0.0 | 0.9 | 0.00 | 0.00 | 0.00 | 89 | 1009.2 |
| 20260509012344 | 75 | 82 | 0.0 | 0.9 | 0.00 | 0.00 | 0.00 | 89 | 1009.2 |
| 20260509011332 | 75 | 27 | 0.0 | 0.0 | 0.00 | 0.00 | 0.00 | 89 | 1009.2 |
| 20260509010340 | 75 | 107 | 0.0 | 0.9 | 0.00 | 0.00 | 0.00 | 89 | 1009.4 |
| 20260509005331 | 75 | 111 | 0.0 | 2.6 | 0.00 | 0.00 | 0.00 | 88 | 1009.3 |
| 20260509004339 | 75 | 92 | 0.9 | 1.7 | 0.00 | 0.00 | 0.00 | 88 | 1009.1 |
| 20260509003330 | 75 | 140 | 0.9 | 4.3 | 0.00 | 0.00 | 0.00 | 88 | 1009.1 |
| 20260509002336 | 76 | 111 | 0.0 | 0.9 | 0.00 | 0.00 | 0.00 | 88 | 1009.0 |
| 20260509001403 | 76 | 119 | 0.0 | 1.7 | 0.00 | 0.00 | 0.00 | 88 | 1009.0 |
| 20260509000330 | 76 | 102 | 0.9 | 2.6 | 0.00 | 0.00 | 0.00 | 88 | 1009.1 |
| 20260508235337 | 76 | 108 | 0.0 | 1.7 | 0.00 | 0.00 | 0.00 | 88 | 1009.2 |
| 20260508234329 | 76 | 77 | 0.0 | 1.7 | 0.00 | 0.00 | 0.00 | 88 | 1009.2 |
| 20260508233338 | 76 | 95 | 0.0 | 0.0 | 0.00 | 0.00 | 0.00 | 87 | 1009.2 |
| 20260508232325 | 76 | 84 | 0.0 | 2.6 | 0.00 | 0.00 | 0.00 | 87 | 1009.1 |
| 20260508231353 | 77 | 111 | 0.9 | 2.6 | 0.00 | 0.00 | 0.00 | 87 | 1009.2 |
| 20260508230339 | 77 | 115 | 0.0 | 0.0 | 0.00 | 0.00 | 0.00 | 87 | 1009.2 |
| 20260508225325 | 77 | 111 | 0.0 | 2.6 | 0.00 | 0.00 | 0.00 | 87 | 1009.2 |
| 20260508224332 | 77 | 125 | 1.7 | 2.6 | 0.00 | 0.00 | 0.00 | 87 | 1009.3 |
| 20260508223327 | 77 | 98 | 0.0 | 1.7 | 0.00 | 0.00 | 0.00 | 86 | 1009.3 |
| 20260508222336 | 77 | 115 | 0.0 | 0.9 | 0.00 | 0.00 | 0.00 | 86 | 1009.1 |
| 20260508221343 | 77 | 115 | 0.0 | 2.6 | 0.00 | 0.00 | 0.00 | 86 | 1009.3 |
| 20260508220332 | 77 | 38 | 0.0 | 2.6 | 0.00 | 0.00 | 0.00 | 86 | 1009.4 |
| 20260508215338 | 77 | 115 | 0.9 | 6.1 | 0.00 | 0.00 | 0.00 | 85 | 1009.4 |
| 20260508214326 | 77 | 134 | 0.9 | 5.2 | 0.00 | 0.00 | 0.00 | 86 | 1009.4 |
| 20260508213334 | 77 | 143 | 0.0 | 2.6 | 0.00 | 0.00 | 0.00 | 86 | 1009.5 |
| 20260508212326 | 77 | 48 | 0.0 | 1.7 | 0.00 | 0.00 | 0.00 | 85 | 1009.5 |
| 20260508211334 | 77 | 102 | 0.9 | 3.5 | 0.00 | 0.00 | 0.00 | 85 | 1009.6 |
| 20260508210324 | 77 | 130 | 2.6 | 5.2 | 0.00 | 0.00 | 0.00 | 85 | 1010.1 |
| 20260508205332 | 77 | 143 | 1.7 | 4.3 | 0.00 | 0.00 | 0.00 | 85 | 1010.2 |
| 20260508204340 | 77 | 121 | 0.9 | 3.5 | 0.00 | 0.00 | 0.00 | 84 | 1010.3 |
| 20260508203327 | 77 | 125 | 1.7 | 2.6 | 0.00 | 0.00 | 0.00 | 84 | 1010.3 |
| 20260508202339 | 77 | 115 | 0.9 | 4.3 | 0.00 | 0.00 | 0.00 | 83 | 1010.4 |
| 20260508201326 | 77 | 133 | 1.7 | 3.5 | 0.00 | 0.00 | 0.00 | 83 | 1010.5 |
| 20260508200335 | 77 | 98 | 0.0 | 4.3 | 0.00 | 0.00 | 0.00 | 84 | 1010.6 |
| 20260508195342 | 76 | 104 | 2.6 | 3.5 | 0.00 | 0.00 | 0.00 | 84 | 1010.4 |
| 20260508194351 | 76 | 124 | 2.6 | 5.2 | 0.00 | 0.00 | 0.00 | 83 | 1010.9 |
| 20260508193337 | 75 | 102 | 0.9 | 2.6 | 0.00 | 0.00 | 0.00 | 84 | 1010.9 |
| 20260508192328 | 75 | 136 | 0.9 | 2.6 | 0.00 | 0.00 | 0.00 | 84 | 1011.1 |
| 20260508191337 | 75 | 115 | 0.9 | 2.6 | 0.00 | 0.00 | 0.00 | 84 | 1011.0 |
| 20260508190326 | 75 | 58 | 0.0 | 0.0 | 0.00 | 0.00 | 0.00 | 85 | 1011.0 |
| 20260508185335 | 74 | 19 | 0.0 | 1.7 | 0.00 | 0.00 | 0.00 | 85 | 1011.7 |
| 20260508184402 | 74 | 54 | 0.0 | 0.0 | 0.00 | 0.00 | 0.00 | 84 | 1011.7 |
| 20260508183326 | 74 | 54 | 0.0 | 0.0 | 0.00 | 0.00 | 0.00 | 84 | 1011.7 |
| 20260508182334 | 74 | 45 | 0.0 | 0.9 | 0.00 | 0.00 | 0.00 | 84 | 1011.7 |
| 20260508181324 | 74 | 140 | 0.9 | 1.7 | 0.00 | 0.00 | 0.00 | 85 | 1011.6 |
| 20260508180354 | 73 | 119 | 0.9 | 3.5 | 0.00 | 0.00 | 0.00 | 85 | 1011.6 |
| 20260508175340 | 73 | 44 | 0.0 | 4.3 | 0.00 | 0.00 | 0.00 | 85 | 1011.7 |
| 20260508174326 | 72 | 69 | 0.9 | 2.6 | 0.00 | 0.00 | 0.00 | 85 | 1011.9 |
| 20260508173352 | 72 | 112 | 0.0 | 1.7 | 0.00 | 0.00 | 0.00 | 86 | 1012.1 |
| 20260508172340 | 72 | 65 | 0.0 | 0.9 | 0.00 | 0.00 | 0.00 | 86 | 1012.3 |
| 20260508171327 | 72 | 129 | 0.9 | 1.7 | 0.00 | 0.00 | 0.00 | 85 | 1012.6 |
| 20260508170326 | 72 | 82 | 0.9 | 3.5 | 0.00 | 0.00 | 0.00 | 86 | 1012.7 |
| 20260508165354 | 71 | 340 | 0.0 | 4.3 | 0.00 | 0.00 | 0.00 | 86 | 1012.8 |
| 20260508164400 | 71 | 34 | 0.0 | 2.6 | 0.00 | 0.00 | 0.00 | 87 | 1012.8 |
| 20260508162404 | 70 | 48 | 0.0 | 1.7 | 0.00 | 0.00 | 0.00 | 87 | 1013.1 |
| 20260508161330 | 70 | 31 | 0.0 | 1.7 | 0.00 | 0.00 | 0.00 | 87 | 1013.1 |
| 20260508160358 | 70 | 7 | 0.9 | 2.6 | 0.00 | 0.00 | 0.00 | 87 | 1013.0 |
| 20260508155345 | 69 | 69 | 0.9 | 5.2 | 0.00 | 0.00 | 0.00 | 87 | 1012.9 |
| 20260508154351 | 69 | 66 | 0.9 | 8.7 | 0.00 | 0.00 | 0.00 | 87 | 1012.9 |
| 20260508153339 | 69 | 65 | 0.9 | 7.8 | 0.00 | 0.00 | 0.00 | 87 | 1013.1 |
| 20260508152328 | 69 | 13 | 1.7 | 7.8 | 0.00 | 0.00 | 0.00 | 87 | 1013.2 |
| 20260508151336 | 69 | 359 | 1.7 | 7.8 | 0.00 | 0.00 | 0.00 | 88 | 1013.2 |
| 20260508150341 | 69 | 33 | 0.9 | 5.2 | 0.00 | 0.00 | 0.00 | 88 | 1013.3 |
| 20260508145330 | 69 | 360 | 1.7 | 5.2 | 0.00 | 0.00 | 0.00 | 88 | 1013.5 |
| 20260508144335 | 69 | 2 | 1.7 | 7.0 | 0.00 | 0.00 | 0.00 | 87 | 1013.5 |
| 20260508143342 | 69 | 11 | 1.7 | 4.3 | 0.00 | 0.00 | 0.00 | 88 | 1013.5 |
| 20260508142334 | 69 | 34 | 0.9 | 7.0 | 0.00 | 0.00 | 0.00 | 88 | 1013.4 |
| 20260508141341 | 69 | 358 | 2.6 | 5.2 | 0.00 | 0.00 | 0.00 | 88 | 1013.3 |
| 20260508140327 | 69 | 9 | 1.7 | 3.5 | 0.00 | 0.00 | 0.00 | 88 | 1013.6 |
| 20260508135334 | 69 | 12 | 0.0 | 5.2 | 0.00 | 0.00 | 0.00 | 88 | 1013.5 |
| 20260508134341 | 69 | 5 | 0.9 | 4.3 | 0.00 | 0.00 | 0.00 | 88 | 1013.4 |
| 20260508133328 | 68 | 318 | 0.0 | 4.3 | 0.00 | 0.00 | 0.00 | 88 | 1013.5 |
| 20260508132339 | 68 | 336 | 0.0 | 2.6 | 0.00 | 0.00 | 0.00 | 88 | 1013.6 |
| 20260508131328 | 68 | 335 | 0.0 | 3.5 | 0.00 | 0.00 | 0.00 | 88 | 1013.4 |
| 20260508130333 | 68 | 356 | 0.9 | 3.5 | 0.00 | 0.00 | 0.00 | 88 | 1013.1 |
| 20260508125340 | 68 | 340 | 0.9 | 3.5 | 0.00 | 0.00 | 0.00 | 88 | 1013.6 |
| 20260508124329 | 67 | 321 | 0.9 | 3.5 | 0.00 | 0.00 | 0.00 | 88 | 1013.8 |
| 20260508123334 | 67 | 357 | 0.0 | 0.0 | 0.00 | 0.00 | 0.00 | 88 | 1013.6 |
| 20260508122325 | 67 | 356 | 0.0 | 1.7 | 0.00 | 0.00 | 0.00 | 88 | 1013.3 |
| 20260508121332 | 67 | 12 | 0.9 | 1.7 | 0.00 | 0.00 | 0.00 | 88 | 1013.4 |
| 20260508120339 | 67 | 43 | 0.0 | 2.6 | 0.00 | 0.00 | 0.00 | 87 | 1013.4 |
| 20260508115327 | 67 | 358 | 0.0 | 3.5 | 0.00 | 0.00 | 0.00 | 87 | 1013.5 |
| 20260508114334 | 67 | 36 | 0.0 | 1.7 | 0.00 | 0.00 | 0.00 | 87 | 1013.6 |
| 20260508113343 | 67 | 14 | 0.0 | 2.6 | 0.00 | 0.00 | 0.00 | 86 | 1014.0 |
| 20260508112332 | 67 | 308 | 0.9 | 2.6 | 0.00 | 0.00 | 0.00 | 85 | 1014.3 |
| 20260508111404 | 68 | 300 | 1.7 | 3.5 | 0.00 | 0.00 | 0.00 | 84 | 1014.1 |
| 20260508110350 | 68 | 331 | 0.0 | 4.3 | 0.00 | 0.00 | 0.00 | 83 | 1013.5 |
| 20260508105335 | 68 | 314 | 0.9 | 4.3 | 0.00 | 0.00 | 0.00 | 84 | 1013.6 |
| 20260508104343 | 68 | 283 | 2.6 | 7.0 | 0.00 | 0.00 | 0.00 | 84 | 1013.4 |
| 20260508103328 | 68 | 76 | 0.0 | 0.0 | 0.00 | 0.00 | 0.00 | 84 | 1012.8 |
| 20260508102335 | 68 | 76 | 0.0 | 0.9 | 0.00 | 0.00 | 0.00 | 83 | 1013.1 |
| 20260508101344 | 68 | 77 | 0.0 | 2.6 | 0.00 | 0.00 | 0.00 | 83 | 1012.9 |
| 20260508100333 | 68 | 69 | 0.0 | 0.9 | 0.00 | 0.00 | 0.00 | 83 | 1012.6 |
| 20260508095324 | 67 | 52 | 0.0 | 2.6 | 0.00 | 0.00 | 0.00 | 84 | 1013.1 |
| 20260508094331 | 67 | 88 | 0.0 | 7.0 | 0.00 | 0.00 | 0.00 | 84 | 1013.4 |
| 20260508093336 | 67 | 298 | 0.9 | 3.5 | 0.00 | 0.00 | 0.00 | 84 | 1014.0 |
| 20260508092402 | 67 | 350 | 2.6 | 5.2 | 0.00 | 0.00 | 0.00 | 84 | 1013.7 |
| 20260508091327 | 67 | 296 | 1.7 | 7.0 | 0.00 | 0.00 | 0.00 | 84 | 1013.5 |
| 20260508090352 | 67 | 49 | 1.7 | 5.2 | 0.00 | 0.00 | 0.00 | 83 | 1013.0 |
| 20260508085340 | 67 | 340 | 0.9 | 3.5 | 0.00 | 0.00 | 0.00 | 84 | 1013.2 |
| 20260508084332 | 67 | 47 | 0.0 | 3.5 | 0.00 | 0.00 | 0.00 | 83 | 1013.0 |
| 20260508083341 | 67 | 64 | 0.0 | 3.5 | 0.00 | 0.00 | 0.00 | 83 | 1012.6 |
| 20260508082350 | 67 | 22 | 0.0 | 3.5 | 0.00 | 0.00 | 0.00 | 83 | 1012.8 |
| 20260508081337 | 67 | 308 | 0.0 | 2.6 | 0.00 | 0.00 | 0.00 | 84 | 1013.6 |
| 20260508080342 | 67 | 316 | 0.0 | 0.0 | 0.00 | 0.00 | 0.00 | 83 | 1013.7 |
| 20260508075351 | 67 | 17 | 0.0 | 2.6 | 0.00 | 0.00 | 0.00 | 84 | 1013.4 |
| 20260508074335 | 67 | 2 | 0.0 | 1.7 | 0.00 | 0.00 | 0.00 | 84 | 1013.4 |
| 20260508073342 | 67 | 4 | 0.0 | 2.6 | 0.00 | 0.00 | 0.00 | 84 | 1013.7 |
| 20260508072333 | 67 | 340 | 0.9 | 3.5 | 0.00 | 0.00 | 0.00 | 84 | 1013.9 |
| 20260508071340 | 67 | 345 | 1.7 | 4.3 | 0.00 | 0.00 | 0.00 | 83 | 1014.0 |
| 20260508070325 | 67 | 332 | 0.9 | 3.5 | 0.00 | 0.00 | 0.00 | 84 | 1014.1 |
| 20260508064339 | 67 | 8 | 0.9 | 3.5 | 0.00 | 0.00 | 0.00 | 84 | 1014.1 |
| 20260508063342 | 67 | 9 | 1.7 | 3.5 | 0.00 | 0.00 | 0.00 | 84 | 1014.0 |
| 20260508062329 | 67 | 333 | 0.0 | 3.5 | 0.00 | 0.00 | 0.00 | 85 | 1014.0 |
| 20260508061341 | 66 | 350 | 0.9 | 2.6 | 0.00 | 0.00 | 0.00 | 85 | 1013.9 |
| 20260508060325 | 66 | 11 | 0.9 | 3.5 | 0.00 | 0.00 | 0.00 | 85 | 1013.5 |
| 20260508055329 | 66 | 323 | 0.9 | 2.6 | 0.00 | 0.00 | 0.00 | 85 | 1013.7 |
| 20260508054337 | 66 | 326 | 0.0 | 2.6 | 0.00 | 0.00 | 0.00 | 85 | 1013.7 |
| 20260508053342 | 66 | 314 | 0.0 | 1.7 | 0.00 | 0.00 | 0.00 | 84 | 1013.8 |
| 20260508052352 | 67 | 333 | 0.0 | 0.9 | 0.00 | 0.00 | 0.00 | 83 | 1013.7 |
| 20260508051337 | 67 | 333 | 0.0 | 0.9 | 0.00 | 0.00 | 0.00 | 83 | 1013.9 |
| 20260508050342 | 67 | 340 | 0.0 | 1.7 | 0.00 | 0.00 | 0.00 | 83 | 1013.9 |
| 20260508045334 | 67 | 304 | 0.9 | 2.6 | 0.00 | 0.00 | 0.00 | 82 | 1014.1 |
| 20260508044400 | 67 | 356 | 0.9 | 3.5 | 0.00 | 0.00 | 0.00 | 81 | 1014.0 |
| 20260508043342 | 67 | 340 | 0.9 | 3.5 | 0.00 | 0.00 | 0.00 | 82 | 1014.1 |
| 20260508042327 | 67 | 345 | 1.7 | 3.5 | 0.00 | 0.00 | 0.00 | 81 | 1014.2 |
| 20260508041337 | 67 | 307 | 0.9 | 4.3 | 0.00 | 0.00 | 0.00 | 81 | 1014.4 |
| 20260508040340 | 67 | 9 | 0.9 | 3.5 | 0.00 | 0.00 | 0.00 | 80 | 1014.0 |
| 20260508035327 | 67 | 358 | 1.7 | 5.2 | 0.00 | 0.00 | 0.00 | 80 | 1013.8 |